2020-032B

Last updated on Fri Jun 05 2020 00:02:03 GMT+0000 (Coordinated Universal Time)

1 45612U 20032B 20156.30461136 .00001251 00000-0 43470-4 0 9994 2 45612 35.0318 133.5077 0013636 351.9661 8.0836 15.29854490 806
UTC large
Height (km)
Speed (km/s)
/
Latitude / Longitude
Inclination (degrees)
Orbital Period (minutes)
Azimuth
Elevation
Range (km)
Doppler Factor

Next 0 passes for location: London (51.5072 / 0.1276)

Sorry there are no passes over London.